Location: Unspecified
(0.0000°N, 0.0000°E)
Time: 00:35:21
(UTC+00:00)

Tiangong - Pass Details

Date: 26 September 2023
Orbit: 370 x 384 km, 41.5° (Epoch: 04 October)

Event Time Altitude Azimuth Distance (km) Brightness Sun altitude
Exits shadow 04:04:17 12° 48° (NE) 1,244 1.0 -26.8°
Drops below altitude 10° 04:05:24 10° 69° (ENE) 1,363 1.5 -26.5°
Sets 04:08:25 0° 101° (ESE) 2,220 3.0 -25.8°
